Time,TemperatureF,DewpointF,PressureIn,WindDirection,WindDirectionDegrees,WindSpeedMPH,WindSpeedGustMPH,Humidity,HourlyPrecipIn,Conditions,Clouds,dailyrainin,SoftwareType,DateUTC
2013-05-07 00:08:00,59.5,51.2,29.71,WNW,292,2.7,-999.0,74,-99.99,,,0.00,Acu-Link.com,2013-05-07 07:08:00,
2013-05-07 00:23:00,59.2,51.3,29.71,SW,225,1.7,-999.0,75,-99.99,,,0.00,Acu-Link.com,2013-05-07 07:23:00,
2013-05-07 00:38:00,58.8,51.3,29.71,South,180,1.7,-999.0,76,-99.99,,,0.00,Acu-Link.com,2013-05-07 07:38:00,
2013-05-07 00:54:00,58.1,51.3,29.71,ESE,112,0.0,-999.0,78,-99.99,,,0.00,Acu-Link.com,2013-05-07 07:54:00,
2013-05-07 01:09:00,57.7,50.9,29.71,NNE,22,0.0,-999.0,78,-99.99,,,0.00,Acu-Link.com,2013-05-07 08:09:00,
2013-05-07 01:24:00,57.2,51.1,29.70,WNW,292,0.0,-999.0,80,-99.99,,,0.00,Acu-Link.com,2013-05-07 08:24:00,
2013-05-07 01:39:00,56.7,51.3,29.71,ENE,67,0.0,-999.0,82,-99.99,,,0.00,Acu-Link.com,2013-05-07 08:39:00,
2013-05-07 01:54:00,56.3,51.2,29.71,NNE,22,0.0,-999.0,83,-99.99,,,0.00,Acu-Link.com,2013-05-07 08:54:00,
2013-05-07 02:09:00,56.8,51.4,29.70,South,180,2.2,-999.0,82,-99.99,,,0.00,Acu-Link.com,2013-05-07 09:09:00,
2013-05-07 02:25:00,56.8,51.4,29.71,SW,225,0.0,-999.0,82,-99.99,,,0.00,Acu-Link.com,2013-05-07 09:25:00,
2013-05-07 02:40:00,56.5,51.4,29.70,SSW,202,2.7,-999.0,83,-99.99,,,0.00,Acu-Link.com,2013-05-07 09:40:00,
2013-05-07 02:55:00,56.8,51.4,29.71,South,180,2.2,-999.0,82,-99.99,,,0.00,Acu-Link.com,2013-05-07 09:55:00,
2013-05-07 03:10:00,57.4,51.6,29.71,SW,225,1.7,-999.0,81,-99.99,,,0.00,Acu-Link.com,2013-05-07 10:10:00,
2013-05-07 03:26:00,57.2,51.4,29.71,NNE,22,0.0,-999.0,81,-99.99,,,0.00,Acu-Link.com,2013-05-07 10:26:00,
2013-05-07 03:41:00,56.8,51.4,29.72,NNE,22,0.0,-999.0,82,-99.99,,,0.00,Acu-Link.com,2013-05-07 10:41:00,
2013-05-07 03:56:00,57.4,51.6,29.72,WSW,247,1.7,-999.0,81,-99.99,,,0.00,Acu-Link.com,2013-05-07 10:56:00,
2013-05-07 04:11:00,57.2,51.8,29.72,SW,225,0.0,-999.0,82,-99.99,,,0.00,Acu-Link.com,2013-05-07 11:11:00,
2013-05-07 04:27:00,57.4,51.6,29.72,ESE,112,0.0,-999.0,81,-99.99,,,0.00,Acu-Link.com,2013-05-07 11:27:00,
2013-05-07 04:42:00,57.4,51.6,29.72,SW,225,2.7,-999.0,81,-99.99,,,0.00,Acu-Link.com,2013-05-07 11:42:00,
2013-05-07 04:57:00,57.4,51.6,29.72,West,270,0.0,-999.0,81,-99.99,,,0.00,Acu-Link.com,2013-05-07 11:57:00,
2013-05-07 05:12:00,57.2,51.4,29.72,East,90,0.0,-999.0,81,-99.99,,,0.00,Acu-Link.com,2013-05-07 12:12:00,
2013-05-07 05:27:00,57.4,51.6,29.72,South,180,0.0,-999.0,81,-99.99,,,0.00,Acu-Link.com,2013-05-07 12:27:00,
2013-05-07 05:43:00,57.4,51.9,29.73,North,0,0.0,-999.0,82,-99.99,,,0.00,Acu-Link.com,2013-05-07 12:43:00,
2013-05-07 05:58:00,57.4,51.9,29.73,SSW,202,0.0,-999.0,82,-99.99,,,0.00,Acu-Link.com,2013-05-07 12:58:00,
2013-05-07 06:13:00,57.2,51.8,29.73,NE,45,0.0,-999.0,82,-99.99,,,0.00,Acu-Link.com,2013-05-07 13:13:00,
2013-05-07 06:28:00,57.2,52.1,29.73,ENE,67,0.0,-999.0,83,-99.99,,,0.00,Acu-Link.com,2013-05-07 13:28:00,
2013-05-07 06:43:00,57.4,52.3,29.73,ENE,67,0.0,-999.0,83,-99.99,,,0.00,Acu-Link.com,2013-05-07 13:43:00,
2013-05-07 06:59:00,57.9,52.8,29.74,NNW,337,0.0,-999.0,83,-99.99,,,0.00,Acu-Link.com,2013-05-07 13:59:00,
2013-05-07 07:14:00,58.6,52.8,29.75,ENE,67,1.7,-999.0,81,-99.99,,,0.00,Acu-Link.com,2013-05-07 14:14:00,
2013-05-07 07:29:00,59.4,52.9,29.76,NNE,22,2.7,-999.0,79,-99.99,,,0.00,Acu-Link.com,2013-05-07 14:29:00,
2013-05-07 07:44:00,59.9,53.0,29.75,NNE,22,2.7,-999.0,78,-99.99,,,0.00,Acu-Link.com,2013-05-07 14:44:00,
2013-05-07 07:59:00,60.6,53.3,29.76,WNW,292,1.7,-999.0,77,-99.99,,,0.00,Acu-Link.com,2013-05-07 14:59:00,
2013-05-07 08:15:00,61.2,53.6,29.76,WNW,292,0.0,-999.0,76,-99.99,,,0.00,Acu-Link.com,2013-05-07 15:15:00,
2013-05-07 08:30:00,61.9,53.5,29.76,SSW,202,0.0,-999.0,74,-99.99,,,0.00,Acu-Link.com,2013-05-07 15:30:00,
2013-05-07 08:45:00,62.1,53.3,29.76,NNE,22,0.0,-999.0,73,-99.99,,,0.00,Acu-Link.com,2013-05-07 15:45:00,
2013-05-07 09:00:00,62.1,53.7,29.76,SSW,202,0.0,-999.0,74,-99.99,,,0.00,Acu-Link.com,2013-05-07 16:00:00,
2013-05-07 09:16:00,63.0,53.4,29.77,SE,135,2.2,-999.0,71,-99.99,,,0.00,Acu-Link.com,2013-05-07 16:16:00,
2013-05-07 09:31:00,64.6,54.2,29.77,West,270,2.2,-999.0,69,-99.99,,,0.00,Acu-Link.com,2013-05-07 16:31:00,
2013-05-07 09:46:00,64.8,54.0,29.77,NNW,337,2.7,-999.0,68,-99.99,,,0.00,Acu-Link.com,2013-05-07 16:46:00,
2013-05-07 10:01:00,66.2,53.7,29.77,NW,315,2.2,-999.0,64,-99.99,,,0.00,Acu-Link.com,2013-05-07 17:01:00,
2013-05-07 10:16:00,66.9,53.9,29.77,WNW,292,2.7,-999.0,63,-99.99,,,0.00,Acu-Link.com,2013-05-07 17:16:00,
2013-05-07 10:32:00,64.6,53.0,29.77,WSW,247,2.7,-999.0,66,-99.99,,,0.00,Acu-Link.com,2013-05-07 17:32:00,
2013-05-07 10:47:00,64.9,53.7,29.76,WSW,247,2.2,-999.0,67,-99.99,,,0.00,Acu-Link.com,2013-05-07 17:47:00,
2013-05-07 11:02:00,64.0,52.8,29.76,West,270,3.2,-999.0,67,-99.99,,,0.00,Acu-Link.com,2013-05-07 18:02:00,
2013-05-07 11:17:00,63.9,52.3,29.77,NNW,337,3.2,-999.0,66,-99.99,,,0.00,Acu-Link.com,2013-05-07 18:17:00,
2013-05-07 11:33:00,64.8,52.3,29.77,SW,225,4.2,-999.0,64,-99.99,,,0.00,Acu-Link.com,2013-05-07 18:33:00,
2013-05-07 11:48:00,64.8,53.2,29.77,SSW,202,2.2,-999.0,66,-99.99,,,0.00,Acu-Link.com,2013-05-07 18:48:00,
2013-05-07 12:03:00,67.6,54.1,29.77,SSW,202,4.7,-999.0,62,-99.99,,,0.00,Acu-Link.com,2013-05-07 19:03:00,
2013-05-07 12:18:00,66.9,53.4,29.77,West,270,3.2,-999.0,62,-99.99,,,0.00,Acu-Link.com,2013-05-07 19:18:00,
2013-05-07 12:34:00,66.9,53.9,29.76,SW,225,2.2,-999.0,63,-99.99,,,0.00,Acu-Link.com,2013-05-07 19:34:00,
2013-05-07 12:49:00,69.4,54.4,29.77,SSW,202,3.7,-999.0,59,-99.99,,,0.00,Acu-Link.com,2013-05-07 19:49:00,
2013-05-07 13:04:00,68.4,53.5,29.76,SW,225,6.8,-999.0,59,-99.99,,,0.00,Acu-Link.com,2013-05-07 20:04:00,
2013-05-07 13:19:00,69.8,54.8,29.75,SSW,202,5.3,-999.0,59,-99.99,,,0.00,Acu-Link.com,2013-05-07 20:19:00,
2013-05-07 13:34:00,69.3,53.9,29.76,SSW,202,6.8,-999.0,58,-99.99,,,0.00,Acu-Link.com,2013-05-07 20:34:00,
2013-05-07 13:50:00,68.2,53.3,29.76,West,270,1.1,-999.0,59,-99.99,,,0.00,Acu-Link.com,2013-05-07 20:50:00,
2013-05-07 14:05:00,70.0,48.3,29.75,WNW,292,1.1,-999.0,46,-99.99,,,0.00,Acu-Link.com,2013-05-07 21:05:00,
2013-05-07 14:20:00,68.9,47.3,29.75,SSW,202,2.7,-999.0,46,-99.99,,,0.00,Acu-Link.com,2013-05-07 21:20:00,
2013-05-07 14:35:00,71.6,47.9,29.74,West,270,4.7,-999.0,43,-99.99,,,0.00,Acu-Link.com,2013-05-07 21:35:00,
2013-05-07 14:50:00,72.5,48.1,29.74,NNW,337,4.2,-999.0,42,-99.99,,,0.00,Acu-Link.com,2013-05-07 21:50:00,
2013-05-07 15:06:00,72.5,46.1,29.73,West,270,8.3,-999.0,39,-99.99,,,0.00,Acu-Link.com,2013-05-07 22:06:00,
2013-05-07 15:21:00,71.8,45.5,29.73,SW,225,6.3,-999.0,39,-99.99,,,0.00,Acu-Link.com,2013-05-07 22:21:00,
2013-05-07 15:36:00,72.7,46.3,29.71,WSW,247,7.3,-999.0,39,-99.99,,,0.00,Acu-Link.com,2013-05-07 22:36:00,
2013-05-07 15:52:00,71.4,46.5,29.72,SW,225,5.8,-999.0,41,-99.99,,,0.00,Acu-Link.com,2013-05-07 22:52:00,
2013-05-07 16:07:00,70.9,47.9,29.72,WSW,247,8.3,-999.0,44,-99.99,,,0.00,Acu-Link.com,2013-05-07 23:07:00,
2013-05-07 16:22:00,70.5,48.1,29.71,WSW,247,8.3,-999.0,45,-99.99,,,0.00,Acu-Link.com,2013-05-07 23:22:00,
2013-05-07 16:37:00,69.8,48.7,29.72,WSW,247,6.8,-999.0,47,-99.99,,,0.00,Acu-Link.com,2013-05-07 23:37:00,
2013-05-07 16:52:00,70.2,50.1,29.70,SSW,202,8.9,-999.0,49,-99.99,,,0.00,Acu-Link.com,2013-05-07 23:52:00,
2013-05-07 17:07:00,68.7,49.3,29.71,West,270,8.3,-999.0,50,-99.99,,,0.00,Acu-Link.com,2013-05-08 00:07:00,
2013-05-07 17:23:00,67.8,49.5,29.72,WSW,247,7.3,-999.0,52,-99.99,,,0.00,Acu-Link.com,2013-05-08 00:23:00,
2013-05-07 17:38:00,68.4,50.6,29.72,SW,225,7.3,-999.0,53,-99.99,,,0.00,Acu-Link.com,2013-05-08 00:38:00,
2013-05-07 17:53:00,68.4,50.6,29.71,WSW,247,9.4,-999.0,53,-99.99,,,0.00,Acu-Link.com,2013-05-08 00:53:00,
2013-05-07 18:08:00,68.7,50.9,29.72,SW,225,7.3,-999.0,53,-99.99,,,0.00,Acu-Link.com,2013-05-08 01:08:00,
2013-05-07 18:23:00,68.5,51.2,29.73,SW,225,7.3,-999.0,54,-99.99,,,0.00,Acu-Link.com,2013-05-08 01:23:00,
2013-05-07 18:39:00,67.6,50.9,29.73,SW,225,5.8,-999.0,55,-99.99,,,0.00,Acu-Link.com,2013-05-08 01:39:00,
2013-05-07 18:54:00,66.9,50.7,29.73,SW,225,6.8,-999.0,56,-99.99,,,0.00,Acu-Link.com,2013-05-08 01:54:00,
2013-05-07 19:09:00,66.7,51.0,29.72,SW,225,6.3,-999.0,57,-99.99,,,0.00,Acu-Link.com,2013-05-08 02:09:00,
2013-05-07 19:24:00,66.0,50.8,29.73,SW,225,4.2,-999.0,58,-99.99,,,0.00,Acu-Link.com,2013-05-08 02:24:00,
2013-05-07 19:39:00,65.7,50.0,29.74,NW,315,5.8,-999.0,57,-99.99,,,0.00,Acu-Link.com,2013-05-08 02:39:00,
2013-05-07 19:54:00,63.3,50.5,29.74,West,270,2.7,-999.0,63,-99.99,,,0.00,Acu-Link.com,2013-05-08 02:54:00,
2013-05-07 20:10:00,62.2,50.7,29.74,West,270,3.7,-999.0,66,-99.99,,,0.00,Acu-Link.com,2013-05-08 03:10:00,
2013-05-07 20:25:00,61.2,51.3,29.75,SW,225,2.2,-999.0,70,-99.99,,,0.00,Acu-Link.com,2013-05-08 03:25:00,
2013-05-07 20:40:00,60.1,52.1,29.76,NNE,22,3.7,-999.0,75,-99.99,,,0.00,Acu-Link.com,2013-05-08 03:40:00,
2013-05-07 20:55:00,58.5,52.0,29.76,NW,315,6.3,-999.0,79,-99.99,,,0.00,Acu-Link.com,2013-05-08 03:55:00,
2013-05-07 21:10:00,57.6,52.1,29.77,WNW,292,2.7,-999.0,82,-99.99,,,0.00,Acu-Link.com,2013-05-08 04:10:00,
2013-05-07 21:26:00,56.8,52.0,29.77,WSW,247,2.7,-999.0,84,-99.99,,,0.00,Acu-Link.com,2013-05-08 04:26:00,
2013-05-07 21:41:00,56.1,51.7,29.78,WNW,292,2.2,-999.0,85,-99.99,,,0.00,Acu-Link.com,2013-05-08 04:41:00,
2013-05-07 21:56:00,55.8,51.7,29.78,SW,225,2.2,-999.0,86,-99.99,,,0.00,Acu-Link.com,2013-05-08 04:56:00,
2013-05-07 22:11:00,55.2,51.4,29.78,WSW,247,1.7,-999.0,87,-99.99,,,0.00,Acu-Link.com,2013-05-08 05:11:00,
2013-05-07 22:26:00,54.7,50.9,29.78,NE,45,0.0,-999.0,87,-99.99,,,0.00,Acu-Link.com,2013-05-08 05:26:00,
2013-05-07 22:42:00,54.1,50.9,29.78,North,0,1.1,-999.0,89,-99.99,,,0.00,Acu-Link.com,2013-05-08 05:42:00,
2013-05-07 22:57:00,53.6,50.7,29.78,East,90,1.7,-999.0,90,-99.99,,,0.00,Acu-Link.com,2013-05-08 05:57:00,
2013-05-07 23:12:00,53.2,50.3,29.77,SSE,157,0.0,-999.0,90,-99.99,,,0.00,Acu-Link.com,2013-05-08 06:12:00,
2013-05-07 23:27:00,53.1,50.5,29.78,SSW,202,1.7,-999.0,91,-99.99,,,0.00,Acu-Link.com,2013-05-08 06:27:00,
2013-05-07 23:42:00,52.9,50.3,29.78,SE,135,0.0,-999.0,91,-99.99,,,0.00,Acu-Link.com,2013-05-08 06:42:00,
2013-05-07 23:58:00,52.5,49.9,29.78,NE,45,0.0,-999.0,91,-99.99,,,0.00,Acu-Link.com,2013-05-08 06:58:00,